This demonstration page uses our WeatherBlox Daily Observations layout. Learn more.

Left ArrowRight Arrow

Hourly Observations for July 27, 2020

Temp ( °F °C ) Dew Point ( °F °C ) Humidity (%) Winds ( mph kmh ) Pressure ( in mb ) Visibility ( mi km ) Precip ( " mm )
12:54 am 00:54 Partly Cloudy with Light Rain 73 22.8 69 20.6 87 87 NNW 10 17 29.99 1016 10 16.0934 0.07 1.778
1:54 am 01:54 Clear 73 22.8 69 20.6 87 87 N 3 6 29.98 1015 10 16.0934 0.001 0.001
2:54 am 02:54 Mostly Cloudy 73 22.8 70 21.1 90 90 Calm 30 1016 10 16.0934 0 0
3:54 am 03:54 Mostly Clear 73 22.8 70 21.1 90 90 W 3 6 30.01 1016 10 16.0934 0 0
4:36 am 04:36 Cloudy 73 22.8 69 20.6 87 87 NW 3 6 29.99 1015 10 16.0934 0 0
4:54 am 04:54 Cloudy 73 22.8 70 21.1 90 90 Calm 29.99 1016 10 16.0934 0 0
5:26 am 05:26 Cloudy 73 22.8 70 21.1 90 90 NNE 3 6 30 1016 10 16.0934 0 0
5:54 am 05:54 Cloudy with Light Rain 74 23.3 70 21.1 88 88 NE 9 15 30 1016 10 16.0934 0.001 0.001
6:03 am 06:03 Cloudy with Light Rain 74 23.3 70 21.1 88 88 ENE 14 22 29.99 1016 9 14.48406 0.001 0.001
6:54 am 06:54 Mostly Cloudy 74 23.3 70 21.1 88 88 NE 9 15 30.03 1017 8 12.87472 0.001 0.001
7:23 am 07:23 Cloudy 74 23.3 70 21.1 88 88 NE 9 15 30.02 1017 8 12.87472 0 0
7:54 am 07:54 Cloudy 73 22.8 67 19.4 81 81 NE 10 17 30.05 1018 10 16.0934 0 0
8:33 am 08:33 Cloudy 73 22.8 66 18.9 79 79 NE 7 11 30.04 1017 10 16.0934 0 0
8:54 am 08:54 Cloudy 73 22.8 64 17.8 74 74 ENE 10 17 30.06 1018 10 16.0934 0 0
9:32 am 09:32 Mostly Cloudy 74 23.3 63 17.2 69 69 NE 9 15 30.05 1018 10 16.0934 0 0
9:54 am 09:54 Cloudy 75 23.9 64 17.8 69 69 E 8 13 30.07 1018 10 16.0934 0 0
10:54 am 10:54 Mostly Sunny 77 25 62 16.7 60 60 E 9 15 30.08 1019 10 16.0934 0 0
11:54 am 11:54 Sunny 80 26.7 61 16.1 52 52 ENE 10 17 30.09 1019 10 16.0934 0 0
12:54 pm 12:54 Sunny 82 27.8 57 13.9 42 42 E 10 17 30.08 1019 10 16.0934 0 0
1:54 pm 13:54 Sunny 83 28.3 57 13.9 41 41 NE 12 19 30.06 1018 10 16.0934 0 0
2:54 pm 14:54 Sunny 84 28.9 57 13.9 40 40 E 8 13 30.05 1018 10 16.0934 0 0
3:54 pm 15:54 Sunny 85 29.4 58 14.4 40 40 E 10 17 30.03 1017 10 16.0934 0 0
4:54 pm 16:54 Sunny 85 29.4 59 15 42 42 NE 8 13 30.02 1017 10 16.0934 0 0
5:54 pm 17:54 Sunny 85 29.4 56 13.3 37 37 E 8 13 30 1016 10 16.0934 0 0
6:54 pm 18:54 Sunny 84 28.9 54 12.2 36 36 E 10 17 29.99 1016 10 16.0934 0 0
7:54 pm 19:54 Sunny 82 27.8 56 13.3 41 41 E 7 11 30 1016 10 16.0934 0 0
8:54 pm 20:54 Clear 78 25.6 59 15 52 52 SE 6 9 30.01 1016 10 16.0934 0 0
9:54 pm 21:54 Clear 77 25 59 15 54 54 Calm 30.01 1016 10 16.0934 0 0
10:54 pm 22:54 Clear 68 20 62 16.7 81 81 Calm 30.03 1017 10 16.0934 0 0
11:54 pm 23:54 Clear 66 18.9 62 16.7 87 87 Calm 30.03 1017 10 16.0934 0 0

Powered by AerisWeather